Showing default

CLARITY-1, 63227

Orbit data source: Space-Track

CLARITY-1, 63227 is an American payload satellite in SSO that was launched on Sat, 15 Mar 2025 UTC via an FALCON 9 launch vehicle from the Air Force Western Test Range (AFWTR). Payload-class satellites include a variety of spacecraft equipped with specific instruments for various scientific and technological missions. These include communications satellites like Starlink; space stations such as the ISS; scientific satellites like the Hubble; Earth observation satellites from companies like Planet Labs, Umbra, and HawkEye 360; GPS; miniature CubeSats for education and research; and military/defense satellites.

Loading next visibility...
Identifier
63227, 2025-052T
Orbit
SSO
Country
Flag of USUS
Related business
Manufacturer
ALBEDO
Mission
Operational Commercial Imaging
Bus & Motor
ALBEDO, Unknown motor
Mass
530 kg wet, 485 kg dry
Launch date (UTC)
2025-03-15 (7 months ago)
Launch vehicle
FALCON 9
Launch site
Air Force Western Test Range (AFWTR)
Object type
Payload
Rocket body
Debris
Shape & HBR
Hex Cyl, 1.1 m
Radar Cross Section
2.290 m², Medium (>0.1 m² and < 1m²)

Expand to show TLE details & history
Last TLE update: 14 hours ago

TLE from 14 hours ago
0 CLARITY-1
1 63227U 25052T   25286.97133668  .00043110  00000-0  48214-3 0  9991
2 63227  97.4336 184.7595 0002654  85.1866 274.9695 15.62621974 32802
Epoch: 2025-10-13T23:18Z
TLE epoch observation values (Epoch: 2025-10-13T23:18:43.489Z)
Latitude
-0.00001°
Longitude
172.31183°
Altitude
383.079 km
Speed
7.68 km/s
True Right ascension
12h 19m 02s
True Declination
0° 00' 00"
Sunlit
Object was in daylight at epoch
Visualization orbit readout
Latitude
Unknown
Longitude
Unknown
Altitude
Unknown
Speed
Unknown
Apparent Right ascension
Unknown
Apparent Declination
Unknown
Sunlit
N/A
Visualization observer readout
Local Sidereal Time
08:11:58
Azimuth
Unknown
Elevation
Unknown
Doppler factor
Unknown
Orbital elements
Apogee altitude
378.79 km
Perigee altitude
375.204 km
Semi-major axis
6,755.134 km
Eccentricity
0.00027
Inclination
97.4336°
RAAN
184.7595°
Arg. of periapsis
85.1866°
True anomaly
274.9392°
Mean anomaly
274.9695°
Eccentric anomaly
274.95435°
Mean motion
3.90924 °/min
Orbital period
92.09 mins
BSTAR
0.00048214
Loading maneuver chart data...
Computing Atmospheric mass density...
Loading historical data...
Loading historical data...
Loading historical data...
Loading historical data...
Loading historical data...
Loading historical data...
Loading historical data...

Documentation

Showing up to 5 results
|